Wetterdaten: Donnerstag, 23.10.2014
Datum Zeit Temp. A. Feuchte A. Luftdruck Regen Wind Richtung Richtung Sonnenschein ET UV Solar Taupunkt Windchill Windben Empfang
23.10.2014 00:00 3,1 C 83 % 1009,5 hPa 0,3 l/m 6,5 km/h (2 Bft) O-NO 59 0 min 0,000 mm 0,0 UV-I 0 W/m 0,5 C 3,0 C 11,9 km/h (2 Bft) 0,00 %
23.10.2014 00:15 2,8 C 83 % 1009,5 hPa 0,3 l/m 1,8 km/h (1 Bft) W-SW 253 0 min 0,000 mm 0,0 UV-I 0 W/m 0,2 C 2,8 C 4,0 km/h (1 Bft) 0,00 %
23.10.2014 00:30 2,6 C 83 % 1009,3 hPa 0,6 l/m 0,7 km/h (0 Bft) N 349 0 min 0,000 mm 0,0 UV-I 0 W/m 0,0 C 2,6 C 4,0 km/h (1 Bft) 0,00 %
23.10.2014 00:45 2,5 C 84 % 1009,3 hPa 0,0 l/m 2,9 km/h (1 Bft) W-SW 255 0 min 0,000 mm 0,0 UV-I 0 W/m 0,1 C 2,5 C 4,0 km/h (1 Bft) 0,00 %
23.10.2014 01:00 2,5 C 84 % 1009,1 hPa 0,3 l/m 7,2 km/h (2 Bft) O 89 0 min 0,000 mm 0,0 UV-I 0 W/m 0,1 C 1,7 C 7,9 km/h (2 Bft) 0,00 %
23.10.2014 01:15 2,6 C 84 % 1008,8 hPa 0,3 l/m 6,5 km/h (2 Bft) N-NW 327 0 min 0,000 mm 0,0 UV-I 0 W/m 0,2 C 2,5 C 11,9 km/h (2 Bft) 0,00 %
23.10.2014 01:30 2,8 C 84 % 1008,8 hPa 0,3 l/m 6,5 km/h (2 Bft) SW 216 0 min 0,000 mm 0,0 UV-I 0 W/m 0,4 C 2,7 C 11,9 km/h (2 Bft) 0,00 %
23.10.2014 01:45 2,8 C 84 % 1008,7 hPa 0,0 l/m 2,9 km/h (1 Bft) O-NO 61 0 min 0,000 mm 0,0 UV-I 0 W/m 0,4 C 2,8 C 4,0 km/h (1 Bft) 0,00 %
23.10.2014 02:00 2,8 C 83 % 1008,7 hPa 0,3 l/m 1,8 km/h (1 Bft) NW 315 0 min 0,000 mm 0,0 UV-I 0 W/m 0,2 C 2,8 C 7,9 km/h (2 Bft) 0,00 %
23.10.2014 02:15 2,8 C 84 % 1008,5 hPa 0,6 l/m 4,0 km/h (1 Bft) W-SW 251 0 min 0,000 mm 0,0 UV-I 0 W/m 0,4 C 2,8 C 7,9 km/h (2 Bft) 0,00 %
23.10.2014 02:30 2,8 C 84 % 1008,9 hPa 0,3 l/m 4,7 km/h (1 Bft) W-SW 255 0 min 0,000 mm 0,0 UV-I 0 W/m 0,4 C 2,8 C 7,9 km/h (2 Bft) 0,00 %
23.10.2014 02:45 2,9 C 84 % 1008,7 hPa 0,3 l/m 2,9 km/h (1 Bft) O-SO 108 0 min 0,000 mm 0,0 UV-I 0 W/m 0,5 C 2,9 C 7,9 km/h (2 Bft) 0,00 %
23.10.2014 03:00 3,0 C 84 % 1008,4 hPa 0,3 l/m 4,0 km/h (1 Bft) NW 310 0 min 0,000 mm 0,0 UV-I 0 W/m 0,6 C 3,0 C 11,9 km/h (2 Bft) 0,00 %
23.10.2014 03:15 3,1 C 85 % 1008,6 hPa 0,3 l/m 0,7 km/h (0 Bft) SO 136 0 min 0,000 mm 0,0 UV-I 0 W/m 0,8 C 3,1 C 4,0 km/h (1 Bft) 0,00 %
23.10.2014 03:30 3,4 C 84 % 1008,5 hPa 0,3 l/m 2,2 km/h (1 Bft) SW 229 0 min 0,000 mm 0,0 UV-I 0 W/m 1,0 C 3,4 C 7,9 km/h (2 Bft) 0,00 %
23.10.2014 03:45 3,6 C 84 % 1008,3 hPa 0,3 l/m 1,8 km/h (1 Bft) SW 226 0 min 0,000 mm 0,0 UV-I 0 W/m 1,2 C 3,6 C 4,0 km/h (1 Bft) 0,00 %
23.10.2014 04:00 3,8 C 85 % 1008,2 hPa 0,3 l/m 0,4 km/h (0 Bft) W-SW 244 0 min 0,000 mm 0,0 UV-I 0 W/m 1,5 C 3,8 C 4,0 km/h (1 Bft) 0,00 %
23.10.2014 04:15 4,0 C 85 % 1008,1 hPa 0,6 l/m 0,0 km/h (0 Bft) W-NW 300 0 min 0,000 mm 0,0 UV-I 0 W/m 1,7 C 4,0 C 0,0 km/h (0 Bft) 0,00 %
23.10.2014 04:30 4,3 C 85 % 1008,0 hPa 0,6 l/m 0,4 km/h (0 Bft) W-SW 254 0 min 0,000 mm 0,0 UV-I 0 W/m 2,0 C 4,3 C 4,0 km/h (1 Bft) 0,00 %
23.10.2014 04:45 4,6 C 85 % 1008,0 hPa 0,6 l/m 1,8 km/h (1 Bft) W-SW 251 0 min 0,000 mm 0,0 UV-I 0 W/m 2,3 C 4,6 C 4,0 km/h (1 Bft) 0,00 %
23.10.2014 05:00 5,1 C 85 % 1007,9 hPa 0,6 l/m 0,4 km/h (0 Bft) W-SW 251 0 min 0,000 mm 0,0 UV-I 0 W/m 2,8 C 5,1 C 4,0 km/h (1 Bft) 0,00 %
23.10.2014 05:15 5,2 C 86 % 1008,1 hPa 0,6 l/m 0,4 km/h (0 Bft) SO 134 0 min 0,000 mm 0,0 UV-I 0 W/m 3,1 C 5,2 C 4,0 km/h (1 Bft) 0,00 %
23.10.2014 05:30 5,8 C 86 % 1008,1 hPa 0,6 l/m 0,7 km/h (0 Bft) S-SW 199 0 min 0,000 mm 0,0 UV-I 0 W/m 3,6 C 5,8 C 4,0 km/h (1 Bft) 0,00 %
23.10.2014 05:45 6,9 C 85 % 1007,9 hPa 0,9 l/m 5,4 km/h (1 Bft) NO 36 0 min 0,000 mm 0,0 UV-I 0 W/m 4,6 C 6,9 C 11,9 km/h (2 Bft) 0,00 %
23.10.2014 06:00 7,1 C 86 % 1008,1 hPa 0,6 l/m 2,2 km/h (1 Bft) W-SW 256 0 min 0,000 mm 0,0 UV-I 0 W/m 4,9 C 7,1 C 4,0 km/h (1 Bft) 0,00 %
23.10.2014 06:15 7,3 C 85 % 1008,0 hPa 0,6 l/m 5,4 km/h (1 Bft) W-SW 250 0 min 0,000 mm 0,0 UV-I 0 W/m 4,9 C 7,3 C 11,9 km/h (2 Bft) 0,00 %
23.10.2014 06:30 7,3 C 85 % 1008,1 hPa 0,3 l/m 4,3 km/h (1 Bft) S-SW 212 0 min 0,000 mm 0,0 UV-I 0 W/m 4,9 C 7,3 C 11,9 km/h (2 Bft) 0,00 %
23.10.2014 06:45 7,4 C 85 % 1008,4 hPa 0,3 l/m 1,4 km/h (1 Bft) SW 230 0 min 0,000 mm 0,0 UV-I 0 W/m 5,0 C 7,4 C 4,0 km/h (1 Bft) 0,00 %
23.10.2014 07:00 7,5 C 85 % 1008,4 hPa 0,0 l/m 9,4 km/h (2 Bft) W-SW 257 0 min 0,000 mm 0,0 UV-I 0 W/m 5,1 C 5,2 C 11,9 km/h (2 Bft) 0,00 %
23.10.2014 07:15 7,5 C 85 % 1008,7 hPa 0,0 l/m 7,2 km/h (2 Bft) W-SW 256 0 min 0,000 mm 0,0 UV-I 0 W/m 5,1 C 6,9 C 11,9 km/h (2 Bft) 0,00 %
23.10.2014 07:30 7,5 C 85 % 1009,2 hPa 0,3 l/m 4,0 km/h (1 Bft) SW 226 0 min 0,000 mm 0,0 UV-I 0 W/m 5,1 C 7,5 C 7,9 km/h (2 Bft) 0,00 %
23.10.2014 07:45 7,6 C 85 % 1009,4 hPa 0,0 l/m 1,8 km/h (1 Bft) W-SW 251 0 min 0,000 mm 0,0 UV-I 0 W/m 5,2 C 7,6 C 4,0 km/h (1 Bft) 0,00 %
23.10.2014 08:00 7,6 C 85 % 1009,5 hPa 0,3 l/m 4,3 km/h (1 Bft) W-SW 252 0 min 0,000 mm 0,0 UV-I 0 W/m 5,2 C 7,6 C 7,9 km/h (2 Bft) 0,00 %
23.10.2014 08:15 7,6 C 85 % 1009,9 hPa 0,0 l/m 1,4 km/h (1 Bft) W-SW 253 0 min 0,000 mm 0,0 UV-I 0 W/m 5,2 C 7,6 C 4,0 km/h (1 Bft) 0,00 %
23.10.2014 08:30 7,7 C 85 % 1010,3 hPa 0,6 l/m 0,0 km/h (0 Bft) O 83 0 min 0,000 mm 0,0 UV-I 0 W/m 5,3 C 7,7 C 0,0 km/h (0 Bft) 0,00 %
23.10.2014 08:45 7,7 C 85 % 1010,6 hPa 0,0 l/m 11,5 km/h (2 Bft) W-SW 251 0 min 0,000 mm 0,0 UV-I 0 W/m 5,3 C 4,1 C 15,8 km/h (3 Bft) 0,00 %
23.10.2014 09:00 7,8 C 85 % 1010,8 hPa 0,3 l/m 1,8 km/h (1 Bft) W-SW 255 0 min 0,000 mm 0,0 UV-I 0 W/m 5,4 C 7,8 C 4,0 km/h (1 Bft) 0,00 %
23.10.2014 09:15 7,8 C 85 % 1011,2 hPa 0,0 l/m 1,4 km/h (1 Bft) W-SW 256 0 min 0,000 mm 0,0 UV-I 0 W/m 5,4 C 7,8 C 4,0 km/h (1 Bft) 0,00 %
23.10.2014 09:30 7,9 C 85 % 1011,7 hPa 0,3 l/m 6,5 km/h (2 Bft) W-SW 255 0 min 0,000 mm 0,0 UV-I 6 W/m 5,5 C 7,8 C 7,9 km/h (2 Bft) 0,00 %
23.10.2014 09:45 7,9 C 85 % 1012,1 hPa 0,3 l/m 0,4 km/h (0 Bft) S 172 0 min 0,000 mm 0,0 UV-I 21 W/m 5,5 C 7,9 C 4,0 km/h (1 Bft) 0,00 %
23.10.2014 10:00 8,0 C 85 % 1012,3 hPa 0,3 l/m 4,7 km/h (1 Bft) W-SW 237 0 min 0,000 mm 0,0 UV-I 3 W/m 5,6 C 8,0 C 7,9 km/h (2 Bft) 0,00 %
23.10.2014 10:15 8,0 C 85 % 1012,5 hPa 0,0 l/m 1,8 km/h (1 Bft) SW 236 0 min 0,000 mm 0,0 UV-I 45 W/m 5,6 C 8,0 C 4,0 km/h (1 Bft) 0,00 %
23.10.2014 10:30 8,1 C 85 % 1012,8 hPa 0,0 l/m 0,7 km/h (0 Bft) NW 315 0 min 0,000 mm 1,0 UV-I 108 W/m 5,7 C 8,1 C 4,0 km/h (1 Bft) 0,00 %
23.10.2014 10:45 8,1 C 85 % 1013,2 hPa 0,0 l/m 0,0 km/h (0 Bft) O 99 0 min 0,000 mm 0,0 UV-I 45 W/m 5,7 C 8,1 C 0,0 km/h (0 Bft) 0,00 %
23.10.2014 11:00 8,1 C 85 % 1013,5 hPa 0,0 l/m 5,8 km/h (2 Bft) W-SW 253 0 min 0,000 mm 0,0 UV-I 13 W/m 5,7 C 8,1 C 7,9 km/h (2 Bft) 0,00 %
23.10.2014 11:15 8,1 C 85 % 1013,8 hPa 0,0 l/m 0,4 km/h (0 Bft) W-SW 251 0 min 0,000 mm 0,0 UV-I 10 W/m 5,7 C 8,1 C 4,0 km/h (1 Bft) 0,00 %
23.10.2014 11:30 8,1 C 84 % 1014,0 hPa 0,0 l/m 4,7 km/h (1 Bft) W-SW 240 0 min 0,000 mm 0,0 UV-I 18 W/m 5,6 C 8,1 C 7,9 km/h (2 Bft) 0,00 %
23.10.2014 11:45 8,1 C 84 % 1014,1 hPa 0,0 l/m 0,4 km/h (0 Bft) W-SW 255 0 min 0,000 mm 0,0 UV-I 42 W/m 5,6 C 8,1 C 4,0 km/h (1 Bft) 0,00 %
23.10.2014 12:00 8,2 C 84 % 1014,0 hPa 0,0 l/m 3,2 km/h (1 Bft) W-NW 299 0 min 0,000 mm 1,0 UV-I 116 W/m 5,7 C 8,2 C 7,9 km/h (2 Bft) 0,00 %
23.10.2014 12:15 8,2 C 84 % 1014,1 hPa 0,0 l/m 0,4 km/h (0 Bft) W-SW 256 0 min 0,000 mm 1,0 UV-I 102 W/m 5,7 C 8,2 C 4,0 km/h (1 Bft) 0,00 %
23.10.2014 12:30 8,2 C 84 % 1014,1 hPa 0,0 l/m 9,4 km/h (2 Bft) W-NW 300 0 min 0,000 mm 0,0 UV-I 51 W/m 5,7 C 6,0 C 11,9 km/h (2 Bft) 0,00 %
23.10.2014 12:45 8,2 C 84 % 1014,2 hPa 0,0 l/m 0,4 km/h (0 Bft) O-NO 65 0 min 0,000 mm 0,0 UV-I 21 W/m 5,7 C 8,2 C 4,0 km/h (1 Bft) 0,00 %
23.10.2014 13:00 8,2 C 84 % 1014,3 hPa 0,3 l/m 0,0 km/h (0 Bft) S-SW 195 0 min 0,000 mm 0,0 UV-I 0 W/m 5,7 C 8,2 C 0,0 km/h (0 Bft) 0,00 %
23.10.2014 13:15 8,2 C 84 % 1014,6 hPa 0,3 l/m 2,9 km/h (1 Bft) SW 232 0 min 0,000 mm 0,0 UV-I 52 W/m 5,7 C 8,2 C 4,0 km/h (1 Bft) 0,00 %
23.10.2014 13:30 8,3 C 84 % 1014,8 hPa 0,3 l/m 4,0 km/h (1 Bft) W-SW 251 0 min 0,000 mm 1,0 UV-I 140 W/m 5,8 C 8,3 C 4,0 km/h (1 Bft) 0,00 %
23.10.2014 13:45 8,3 C 84 % 1014,8 hPa 0,9 l/m 1,8 km/h (1 Bft) SW 235 0 min 0,000 mm 1,0 UV-I 182 W/m 5,8 C 8,3 C 4,0 km/h (1 Bft) 0,00 %
23.10.2014 14:00 8,3 C 85 % 1015,2 hPa 0,9 l/m 2,2 km/h (1 Bft) W-SW 255 0 min 0,000 mm 0,0 UV-I 8 W/m 5,9 C 8,3 C 4,0 km/h (1 Bft) 0,00 %
23.10.2014 14:15 8,3 C 85 % 1015,3 hPa 0,3 l/m 1,4 km/h (1 Bft) N-NO 31 0 min 0,000 mm 1,0 UV-I 123 W/m 5,9 C 8,3 C 4,0 km/h (1 Bft) 0,00 %
23.10.2014 14:30 8,4 C 85 % 1015,8 hPa 1,2 l/m 0,4 km/h (0 Bft) W-SW 251 0 min 0,000 mm 0,0 UV-I 13 W/m 6,0 C 8,4 C 4,0 km/h (1 Bft) 0,00 %
23.10.2014 14:45 8,3 C 85 % 1015,8 hPa 0,3 l/m 0,4 km/h (0 Bft) O 94 0 min 0,000 mm 0,0 UV-I 0 W/m 5,9 C 8,3 C 4,0 km/h (1 Bft) 0,00 %
23.10.2014 15:00 8,3 C 85 % 1016,0 hPa 0,0 l/m 4,0 km/h (1 Bft) W-SW 251 0 min 0,000 mm 0,0 UV-I 0 W/m 5,9 C 8,3 C 7,9 km/h (2 Bft) 0,00 %
23.10.2014 15:15 8,4 C 85 % 1016,2 hPa 0,3 l/m 0,4 km/h (0 Bft) W-NW 285 0 min 0,000 mm 0,0 UV-I 0 W/m 6,0 C 8,4 C 4,0 km/h (1 Bft) 0,00 %
23.10.2014 15:30 8,4 C 85 % 1016,5 hPa 0,0 l/m 0,0 km/h (0 Bft) S 174 0 min 0,000 mm 0,0 UV-I 0 W/m 6,0 C 8,4 C 0,0 km/h (0 Bft) 0,00 %
23.10.2014 15:45 8,3 C 85 % 1016,6 hPa 0,3 l/m 0,7 km/h (0 Bft) SO 132 0 min 0,000 mm 0,0 UV-I 0 W/m 5,9 C 8,3 C 4,0 km/h (1 Bft) 0,00 %
23.10.2014 16:00 8,4 C 85 % 1016,8 hPa 0,6 l/m 0,7 km/h (0 Bft) N-NW 347 0 min 0,000 mm 0,0 UV-I 0 W/m 6,0 C 8,4 C 4,0 km/h (1 Bft) 0,00 %
23.10.2014 16:15 8,4 C 84 % 1017,0 hPa 0,6 l/m 5,4 km/h (1 Bft) W-NW 286 0 min 0,000 mm 0,0 UV-I 0 W/m 5,9 C 8,4 C 7,9 km/h (2 Bft) 0,00 %
23.10.2014 16:30 8,5 C 84 % 1017,3 hPa 0,3 l/m 1,4 km/h (1 Bft) S-SW 211 0 min 0,000 mm 0,0 UV-I 0 W/m 6,0 C 8,5 C 4,0 km/h (1 Bft) 0,00 %
23.10.2014 16:45 8,5 C 84 % 1017,6 hPa 0,3 l/m 2,9 km/h (1 Bft) W-SW 252 0 min 0,000 mm 0,0 UV-I 0 W/m 6,0 C 8,5 C 4,0 km/h (1 Bft) 0,00 %
23.10.2014 17:00 8,5 C 84 % 1017,5 hPa 0,0 l/m 4,0 km/h (1 Bft) W-SW 255 0 min 0,000 mm 0,0 UV-I 0 W/m 6,0 C 8,5 C 7,9 km/h (2 Bft) 0,00 %
23.10.2014 17:15 8,5 C 84 % 1017,8 hPa 0,0 l/m 4,3 km/h (1 Bft) W-SW 253 0 min 0,000 mm 0,0 UV-I 0 W/m 6,0 C 8,5 C 7,9 km/h (2 Bft) 0,00 %
23.10.2014 17:30 8,4 C 85 % 1018,0 hPa 0,0 l/m 3,2 km/h (1 Bft) SO 131 0 min 0,000 mm 0,0 UV-I 0 W/m 6,0 C 8,4 C 7,9 km/h (2 Bft) 0,00 %
23.10.2014 17:45 8,4 C 84 % 1018,2 hPa 0,0 l/m 0,4 km/h (0 Bft) NO 42 0 min 0,000 mm 0,0 UV-I 0 W/m 5,9 C 8,4 C 4,0 km/h (1 Bft) 0,00 %
23.10.2014 18:00 8,4 C 84 % 1018,5 hPa 0,0 l/m 0,0 km/h (0 Bft) N 349 0 min 0,000 mm 0,0 UV-I 0 W/m 5,9 C 8,4 C 0,0 km/h (0 Bft) 0,00 %
23.10.2014 18:15 8,4 C 84 % 1018,5 hPa 0,0 l/m 0,4 km/h (0 Bft) W-SW 256 0 min 0,000 mm 0,0 UV-I 0 W/m 5,9 C 8,4 C 4,0 km/h (1 Bft) 0,00 %
23.10.2014 18:30 8,1 C 83 % 1018,8 hPa 0,0 l/m 1,8 km/h (1 Bft) O 80 0 min 0,000 mm 0,0 UV-I 0 W/m 5,4 C 8,1 C 7,9 km/h (2 Bft) 0,00 %
23.10.2014 18:45 7,8 C 84 % 1019,0 hPa 0,0 l/m 0,4 km/h (0 Bft) S-SW 213 0 min 0,000 mm 0,0 UV-I 0 W/m 5,3 C 7,8 C 4,0 km/h (1 Bft) 0,00 %
23.10.2014 19:00 7,6 C 83 % 1019,3 hPa 0,0 l/m 1,8 km/h (1 Bft) W-NW 298 0 min 0,000 mm 0,0 UV-I 0 W/m 4,9 C 7,6 C 4,0 km/h (1 Bft) 0,00 %
23.10.2014 19:15 7,3 C 83 % 1019,4 hPa 0,0 l/m 0,4 km/h (0 Bft) S 185 0 min 0,000 mm 0,0 UV-I 0 W/m 4,6 C 7,3 C 4,0 km/h (1 Bft) 0,00 %
23.10.2014 19:30 7,2 C 83 % 1019,7 hPa 0,0 l/m 0,4 km/h (0 Bft) N 356 0 min 0,000 mm 0,0 UV-I 0 W/m 4,5 C 7,2 C 4,0 km/h (1 Bft) 0,00 %
23.10.2014 19:45 7,2 C 83 % 1019,9 hPa 0,0 l/m 0,4 km/h (0 Bft) O-SO 106 0 min 0,000 mm 0,0 UV-I 0 W/m 4,5 C 7,2 C 4,0 km/h (1 Bft) 0,00 %
23.10.2014 20:00 7,1 C 83 % 1019,9 hPa 0,0 l/m 0,7 km/h (0 Bft) O-SO 103 0 min 0,000 mm 0,0 UV-I 0 W/m 4,4 C 7,1 C 4,0 km/h (1 Bft) 0,00 %
23.10.2014 20:15 6,8 C 82 % 1020,3 hPa 0,0 l/m 1,8 km/h (1 Bft) N-NO 24 0 min 0,000 mm 0,0 UV-I 0 W/m 3,9 C 6,8 C 4,0 km/h (1 Bft) 0,00 %
23.10.2014 20:30 6,7 C 82 % 1020,0 hPa 0,0 l/m 1,4 km/h (1 Bft) N-NO 20 0 min 0,000 mm 0,0 UV-I 0 W/m 3,8 C 6,7 C 4,0 km/h (1 Bft) 0,00 %
23.10.2014 20:45 6,7 C 82 % 1020,3 hPa 0,0 l/m 5,8 km/h (2 Bft) O-NO 74 0 min 0,000 mm 0,0 UV-I 0 W/m 3,8 C 6,7 C 7,9 km/h (2 Bft) 0,00 %
23.10.2014 21:00 6,7 C 82 % 1020,4 hPa 0,0 l/m 0,7 km/h (0 Bft) S 172 0 min 0,000 mm 0,0 UV-I 0 W/m 3,8 C 6,7 C 4,0 km/h (1 Bft) 0,00 %
23.10.2014 21:15 6,7 C 82 % 1020,6 hPa 0,0 l/m 6,8 km/h (2 Bft) W-SW 255 0 min 0,000 mm 0,0 UV-I 0 W/m 3,8 C 6,4 C 11,9 km/h (2 Bft) 0,00 %
23.10.2014 21:30 6,7 C 82 % 1021,1 hPa 0,0 l/m 0,4 km/h (0 Bft) W 278 0 min 0,000 mm 0,0 UV-I 0 W/m 3,8 C 6,7 C 4,0 km/h (1 Bft) 0,00 %
23.10.2014 21:45 6,9 C 82 % 1021,0 hPa 0,0 l/m 0,0 km/h (0 Bft) W-SW 256 0 min 0,000 mm 0,0 UV-I 0 W/m 4,0 C 6,9 C 0,0 km/h (0 Bft) 0,00 %
23.10.2014 22:00 7,0 C 82 % 1021,0 hPa 0,0 l/m 1,4 km/h (1 Bft) N 356 0 min 0,000 mm 0,0 UV-I 0 W/m 4,1 C 7,0 C 4,0 km/h (1 Bft) 0,00 %
23.10.2014 22:15 7,0 C 82 % 1021,1 hPa 0,0 l/m 0,0 km/h (0 Bft) N 11 0 min 0,000 mm 0,0 UV-I 0 W/m 4,1 C 7,0 C 0,0 km/h (0 Bft) 0,00 %
23.10.2014 22:30 6,9 C 82 % 1021,1 hPa 0,0 l/m 2,9 km/h (1 Bft) NW 315 0 min 0,000 mm 0,0 UV-I 0 W/m 4,0 C 6,9 C 7,9 km/h (2 Bft) 0,00 %
23.10.2014 22:45 6,9 C 82 % 1021,2 hPa 0,0 l/m 0,7 km/h (0 Bft) N-NW 332 0 min 0,000 mm 0,0 UV-I 0 W/m 4,0 C 6,9 C 4,0 km/h (1 Bft) 0,00 %
23.10.2014 23:00 7,0 C 82 % 1021,3 hPa 0,0 l/m 2,2 km/h (1 Bft) S-SW 198 0 min 0,000 mm 0,0 UV-I 0 W/m 4,1 C 7,0 C 7,9 km/h (2 Bft) 0,00 %
23.10.2014 23:15 7,1 C 82 % 1021,3 hPa 0,0 l/m 0,4 km/h (0 Bft) SW 221 0 min 0,000 mm 0,0 UV-I 0 W/m 4,2 C 7,1 C 4,0 km/h (1 Bft) 0,00 %
23.10.2014 23:30 7,0 C 82 % 1021,3 hPa 0,0 l/m 1,8 km/h (1 Bft) W-NW 290 0 min 0,000 mm 0,0 UV-I 0 W/m 4,1 C 7,0 C 4,0 km/h (1 Bft) 0,00 %
23.10.2014 23:45 7,0 C 82 % 1021,5 hPa 0,0 l/m 3,2 km/h (1 Bft) N 356 0 min 0,000 mm 0,0 UV-I 0 W/m 4,1 C 7,0 C 7,9 km/h (2 Bft) 0,00 %
_ Min-Zeit 00:45 20:15 05:00 - 04:15 - - - - - - 00:30 01:00 04:15 00:00
Minimum _ 2,5 C 82 % 1007,9 hPa - 0,0 km/h (0 Bft) - - - - - - 0,0 C 1,7 C 0,0 km/h (0 Bft) 0,00 %
_ Max-Zeit 16:30 05:15 23:45 14:30 08:45 - - 00:00 00:00 10:30 13:45 14:30 16:30 08:45 00:00
Maximum _ 8,5 C 86 % 1021,5 hPa 1,2 l/m 11,5 km/h
W-SW (2 Bft)
- - 0 min 0,000 mm 1,0 UV-I 182 W/m 6,0 C 8,5 C 15,8 km/h
W-SW (3 Bft)
0,00 %
Durchschnitt _ 6,7 C 84 % 1014,0 hPa #20,7 l/m 2,4 km/h (1 Bft) W-SW - #0 min. #0,000 mm 1,0 UV-I 56 W/m 4,2 C 6,6 C 5,6 km/h (1 Bft) 0,00 %